Date String (YYYY-MM-DD hh:mm:ss) UTC,Instrument flags,Ambient pressure (hPa),Sample flow (lpm),Bypass flow (lpm),Sample temperature (°C),Ambient temperature (°C),ASC tube jacket temperature (°C),LED temperature (°C),Box temperature (°C),Sample RH (%),Span deviation,Mass concentration (μg/m³),Mass concentration (μg/m³),Mass concentration (μg/m³)
DateTimeUTC,F1_M11,P_M11,Q1_M11,Q2_M11,T1_M11,T2_M11,T3_M11,T4_M11,T5_M11,U1_M11,ZSPAN_M11,X0_M11,X2_M11,X1_M11
2022-08-27 12:00:00,,0823.9,5.01,0.00,30.5,29.3,00.0,39.3,32.3,23.6,0000.0,0009.42,0004.11,0003.64
2022-08-27 12:01:00,,0824.0,4.99,0.00,30.5,29.3,00.0,39.3,32.3,23.7,0000.0,0009.18,0004.09,0003.65
2022-08-27 12:02:00,,0823.9,5.01,0.00,30.5,29.3,00.0,39.3,32.4,23.6,0000.0,0009.21,0004.08,0003.66
2022-08-27 12:03:00,,0823.9,5.00,0.00,30.5,29.4,00.0,39.3,32.4,23.6,0000.0,0009.45,0004.11,0003.66
2022-08-27 12:04:00,,0824.0,5.00,0.00,30.6,29.4,00.0,39.3,32.4,23.7,0000.0,0009.52,0004.15,0003.67
2022-08-27 12:05:00,,0824.0,5.00,0.00,30.6,29.4,00.0,39.4,32.3,23.7,0000.0,0009.33,0004.14,0003.68
2022-08-27 12:06:00,,0824.0,4.99,0.00,30.6,29.4,00.0,39.4,32.4,23.8,0000.0,0009.28,0004.12,0003.68
2022-08-27 12:07:00,,0824.0,5.01,0.00,30.6,29.4,00.0,39.4,32.4,23.7,0000.0,0009.21,0004.11,0003.68
2022-08-27 12:08:00,,0824.1,4.99,0.00,30.6,29.4,00.0,39.4,32.4,23.7,0000.0,0008.45,0004.08,0003.68
2022-08-27 12:09:00,,0824.0,5.00,0.00,30.6,29.4,00.0,39.4,32.4,23.7,0000.0,0007.85,0004.06,0003.68
2022-08-27 12:10:00,,0824.0,5.00,0.00,30.6,29.4,00.0,39.4,32.4,23.6,0000.0,0007.24,0004.05,0003.68
2022-08-27 12:11:00,,0824.1,5.00,0.00,30.6,29.4,00.0,39.4,32.4,23.6,0000.0,0007.07,0004.07,0003.68
2022-08-27 12:12:00,,0824.1,4.99,0.00,30.6,29.5,00.0,39.4,32.5,23.6,0000.0,0007.28,0004.11,0003.68
2022-08-27 12:13:00,,0824.0,5.01,0.00,30.7,29.5,00.0,39.4,32.5,23.5,0000.0,0007.23,0004.09,0003.68
2022-08-27 12:14:00,,0824.1,4.99,0.00,30.7,29.5,00.0,39.5,32.5,23.5,0000.0,0006.79,0004.05,0003.67
2022-08-27 12:15:00,,0824.1,4.99,0.00,30.7,29.4,00.0,39.5,32.5,23.5,0000.0,0006.73,0004.02,0003.67
2022-08-27 12:16:00,,0824.0,5.02,0.00,30.7,29.5,00.0,39.5,32.5,23.4,0000.0,0006.77,0004.05,0003.66
2022-08-27 12:17:00,,0824.0,5.00,0.00,30.7,29.5,00.0,39.5,32.5,23.4,0000.0,0006.71,0004.03,0003.65
2022-08-27 12:18:00,,0824.0,5.00,0.00,30.7,29.5,00.0,39.5,32.5,23.4,0000.0,0006.54,0004.00,0003.64
2022-08-27 12:19:00,,0823.9,4.99,0.00,30.7,29.5,00.0,39.5,32.5,23.2,0000.0,0006.46,0004.00,0003.64
2022-08-27 12:20:00,,0824.0,5.01,0.00,30.7,29.5,00.0,39.5,32.5,21.2,0000.0,0006.47,0003.98,0003.61
2022-08-27 12:21:00,,0824.0,4.99,0.00,30.7,29.5,00.0,39.5,32.5,19.8,0000.0,0006.28,0003.93,0003.55
2022-08-27 12:22:00,,0824.0,5.01,0.00,30.7,29.5,00.0,39.5,32.5,19.4,0000.0,0006.19,0003.85,0003.49
2022-08-27 12:23:00,,0824.0,5.01,0.00,30.8,29.6,00.0,39.6,32.5,19.2,0000.0,0005.98,0003.76,0003.42
2022-08-27 12:24:00,,0824.1,5.00,0.00,30.8,29.5,00.0,39.6,32.6,19.6,0000.0,0005.68,0003.68,0003.36
2022-08-27 12:25:00,,0824.1,5.01,0.00,30.8,29.5,00.0,39.6,32.6,21.4,0000.0,0005.51,0003.65,0003.32
2022-08-27 12:26:00,,0824.1,4.99,0.00,30.8,29.5,00.0,39.6,32.6,21.9,0000.0,0006.61,0003.65,0003.30
2022-08-27 12:27:00,,0824.1,5.00,0.00,30.8,29.6,00.0,39.6,32.6,20.8,0000.0,0007.29,0003.62,0003.27
2022-08-27 12:28:00,,0824.1,4.99,0.00,30.8,29.6,00.0,39.6,32.6,20.2,0000.0,0007.49,0003.59,0003.23
2022-08-27 12:29:00,,0824.1,4.99,0.00,30.8,29.6,00.0,39.6,32.6,19.9,0000.0,0007.48,0003.55,0003.18
2022-08-27 12:30:00,,0824.1,5.01,0.00,30.8,29.6,00.0,39.6,32.6,20.1,0000.0,0007.47,0003.51,0003.13
2022-08-27 12:31:00,,0824.1,5.00,0.00,30.8,29.6,00.0,39.6,32.6,20.3,0000.0,0007.43,0003.49,0003.11
2022-08-27 12:32:00,,0824.1,5.00,0.00,30.8,29.6,00.0,39.6,32.6,20.1,0000.0,0007.55,0003.48,0003.11
2022-08-27 12:33:00,,0824.1,5.00,0.00,30.8,29.6,00.0,39.6,32.6,19.6,0000.0,0007.56,0003.50,0003.12
2022-08-27 12:34:00,,0824.1,5.00,0.00,30.8,29.6,00.0,39.7,32.6,20.1,0000.0,0007.61,0003.53,0003.13
2022-08-27 12:35:00,,0824.1,5.00,0.00,30.9,29.6,00.0,39.7,32.7,21.2,0000.0,0007.75,0003.58,0003.16
2022-08-27 12:36:00,,0824.1,5.00,0.00,30.9,29.6,00.0,39.7,32.7,21.4,0000.0,0007.75,0003.59,0003.17
2022-08-27 12:37:00,,0824.1,5.00,0.00,30.9,29.7,00.0,39.7,32.7,20.7,0000.0,0006.73,0003.55,0003.17
2022-08-27 12:38:00,,0824.1,5.02,0.00,30.9,28.8,00.0,39.7,32.6,22.2,0000.0,0006.80,0003.56,0003.18
2022-08-27 12:39:00,,0824.1,4.98,0.00,30.8,27.5,00.0,39.6,32.5,23.0,0000.0,0006.85,0003.61,0003.23
2022-08-27 12:40:00,,0824.1,5.01,0.00,30.8,27.2,00.0,39.5,32.4,23.1,0000.0,0007.07,0003.68,0003.28
2022-08-27 12:41:00,,0824.1,5.00,0.00,30.7,27.4,00.0,39.5,32.2,23.4,0000.0,0007.17,0003.74,0003.34
2022-08-27 12:42:00,,0824.1,4.99,0.00,30.6,27.7,00.0,39.5,32.1,22.4,0000.0,0007.27,0003.80,0003.39
2022-08-27 12:43:00,,0824.1,4.99,0.00,30.5,28.0,00.0,39.4,32.1,23.3,0000.0,0007.19,0003.86,0003.42
2022-08-27 12:44:00,,0824.1,5.01,0.00,30.5,28.3,00.0,39.4,32.1,23.5,0000.0,0007.19,0003.90,0003.47
2022-08-27 12:45:00,,0824.1,5.00,0.00,30.5,28.5,00.0,39.4,32.1,23.6,0000.0,0007.19,0003.93,0003.51
2022-08-27 12:46:00,,0824.1,4.99,0.00,30.5,28.6,00.0,39.4,32.2,23.6,0000.0,0007.15,0003.96,0003.56
2022-08-27 12:47:00,,0824.1,5.00,0.00,30.4,28.8,00.0,39.4,32.2,23.6,0000.0,0007.35,0004.00,0003.60
2022-08-27 12:48:00,,0824.1,5.01,0.00,30.4,28.9,00.0,39.3,32.2,23.7,0000.0,0007.47,0004.04,0003.64
2022-08-27 12:49:00,,0824.1,5.00,0.00,30.4,28.9,00.0,39.3,32.2,23.7,0000.0,0007.13,0004.07,0003.67
2022-08-27 12:50:00,,0824.1,5.01,0.00,30.4,29.0,00.0,39.3,32.2,23.8,0000.0,0006.88,0004.09,0003.69
2022-08-27 12:51:00,,0824.1,4.99,0.00,30.4,29.1,00.0,39.3,32.2,23.8,0000.0,0006.90,0004.10,0003.70
2022-08-27 12:52:00,,0824.1,5.00,0.00,30.5,29.1,00.0,39.3,32.2,23.8,0000.0,0007.25,0004.08,0003.71
2022-08-27 12:53:00,,0824.1,5.01,0.00,30.5,29.1,00.0,39.3,32.2,23.7,0000.0,0007.54,0004.11,0003.72
2022-08-27 12:54:00,,0824.1,4.99,0.00,30.5,29.2,00.0,39.3,32.2,23.7,0000.0,0008.01,0004.13,0003.75
2022-08-27 12:55:00,,0824.1,5.01,0.00,30.5,29.2,00.0,39.3,32.3,23.8,0000.0,0008.76,0004.15,0003.76
2022-08-27 12:56:00,,0824.1,5.00,0.00,30.5,29.2,00.0,39.3,32.3,23.7,0000.0,0009.05,0004.21,0003.77
2022-08-27 12:57:00,,0824.1,5.00,0.00,30.5,29.3,00.0,39.3,32.3,23.6,0000.0,0009.14,0004.24,0003.77
2022-08-27 12:58:00,,0824.2,5.01,0.00,30.5,29.3,00.0,39.3,32.3,23.5,0000.0,0009.16,0004.27,0003.78
2022-08-27 12:59:00,,0824.2,4.99,0.00,30.5,29.3,00.0,39.3,32.3,23.5,0000.0,0009.18,0004.30,0003.79
